EagleEye

operational
NORAD ID: 60508 Int'l Des: 2024-149 Owner: CREO Country: PL
LEOCIRCULARRETROGRADESSO

About EagleEye

Description loading...

Live Position

Loading 3D Globe...

Upcoming Passes

Altitude History

Altitude vs Time

uPlot chart will show altitude changes over time

Two-Line Element Set

1 60508U 24149AS 25345.20969855 .00057801 00000-0 11525-2 0 9999
2 60508 97.3925 66.8286 0003045 213.2755 146.8303 15.46677749 73673
Epoch: Dec 11, 2025 • Age: 8 hours

Current Status

Altitude 441.1 km
Velocity 7.65 km/s
Sub-Earth Point 82.16°N, 79.51°E
Launch Date Aug 16, 2024
Age 1.3 years
Type other

Technical Details

Classification Payload
Mass 55.00 kg
Dry Mass 55.00 kg
Total Mass 55.00 kg
Length 0.90 m
Diameter 0.50 m
Span 1.50 m
Shape Box + 2 pan
Manufacturer CREO
Bus Type HyperSat
Phase Status In Orbit
Owner/State CREO/PL

Large Constellations

Loading constellations...